Location: Newark
(48.9320°N, 2.2664°E)
Time: 02:45:23
(UTC+00:00)

S-56A Canister/Altair - All Passes

Search period start: 23 February 2020 00:00
Search period end: 04 March 2020 00:00
Orbit: 633 x 2499 km, 38.9° (Epoch: 22 February)

Date Brightness Start Highest point End Pass type
(mag) Time Alt. Az. Time Alt. Az. Time Alt. Az.
23 Feb - 08:48:58 10° S 08:59:01 25° SE 09:09:48 10° E daylight
23 Feb - 10:49:55 10° SW 11:03:19 46° SSE 11:16:42 10° E daylight
23 Feb - 12:54:20 10° WSW 13:08:52 57° S 13:21:37 10° ESE daylight
23 Feb - 15:00:27 10° W 15:14:06 45° SSW 15:24:56 10° SE daylight
23 Feb - 17:08:21 10° W 17:17:35 22° SW 17:25:08 10° S daylight
24 Feb - 08:16:48 10° S 08:25:54 22° SE 08:35:50 10° E daylight
24 Feb - 10:16:59 10° SW 10:29:53 44° SSE 10:43:21 10° E daylight
24 Feb - 12:20:57 10° WSW 12:35:22 57° S 12:48:37 10° ESE daylight
24 Feb - 14:26:47 10° W 14:40:48 48° SSW 14:52:18 10° SE daylight
24 Feb - 16:34:13 10° W 16:44:40 26° SW 16:53:11 10° S daylight
25 Feb - 07:44:55 10° SSE 07:52:52 19° SE 08:01:38 10° E daylight
25 Feb - 09:44:09 10° SW 09:56:31 41° SSE 10:09:54 10° E daylight
25 Feb - 11:47:40 10° WSW 12:01:50 56° S 12:15:29 10° ESE daylight
25 Feb - 13:53:11 10° W 14:07:26 51° SSW 14:19:33 10° SE daylight
25 Feb - 16:00:13 10° W 16:11:40 29° SW 16:21:02 10° SSE daylight
26 Feb - 07:13:21 10° SSE 07:19:54 16° SE 07:27:06 10° E daylight
26 Feb - 09:11:27 10° SSW 09:23:11 39° SSE 09:36:20 10° E daylight
26 Feb - 11:14:29 10° WSW 11:28:18 55° S 11:42:16 10° E daylight
26 Feb - 13:19:40 10° W 13:34:00 53° SSW 13:46:42 10° ESE daylight
26 Feb - 15:26:20 10° W 15:38:34 33° SW 15:48:45 10° SSE daylight
26 Feb - 17:40:06 10° WSW 17:41:05 10° WSW 17:42:04 10° SW daylight
27 Feb - 06:42:26 10° SSE 06:47:01 13° SE 06:51:57 10° ESE daylight
27 Feb - 08:38:53 10° SSW 08:49:55 35° SE 09:02:41 10° E daylight
27 Feb - 10:41:24 10° WSW 10:54:47 54° SSE 11:08:57 10° E daylight
27 Feb - 12:46:15 10° W 13:00:31 55° S 13:13:46 10° ESE daylight
27 Feb - 14:52:34 10° W 15:05:24 36° SW 15:16:19 10° SSE daylight
27 Feb - 17:02:57 10° WSW 17:08:17 13° SW 17:13:11 10° SSW daylight
28 Feb - 08:06:26 10° SSW 08:16:44 32° SE 08:28:55 10° E daylight
28 Feb - 10:08:26 10° SW 10:21:18 52° SSE 10:35:34 10° E daylight
28 Feb - 12:12:55 10° W 12:27:00 56° S 12:40:42 10° ESE daylight
28 Feb - 14:18:53 10° W 14:32:09 39° SSW 14:43:46 10° SSE daylight
28 Feb - 16:27:57 10° W 16:35:25 16° SW 16:42:08 10° SSW daylight
29 Feb - 07:34:08 10° SSW 07:43:38 29° SE 07:55:02 10° E daylight
29 Feb - 09:35:33 10° SW 09:47:51 50° SSE 10:02:04 10° E daylight
29 Feb - 11:39:40 10° WSW 11:53:29 56° S 12:07:32 10° ESE daylight
29 Feb - 13:45:18 10° W 13:58:49 42° SSW 14:11:04 10° SE daylight
29 Feb - 15:53:28 10° W 16:02:28 19° SW 16:10:31 10° S daylight
01 Mar - 07:02:00 10° S 07:10:37 25° SE 07:21:02 10° E daylight
01 Mar - 09:02:48 10° SW 09:14:28 48° SSE 09:28:30 10° E daylight
01 Mar - 11:06:31 10° WSW 11:19:56 57° S 11:34:17 10° ESE daylight
01 Mar - 13:11:49 10° W 13:25:26 45° SSW 13:38:15 10° SE daylight
01 Mar - 15:19:17 10° W 15:29:26 23° SW 15:38:35 10° S daylight
02 Mar - 06:30:04 10° S 06:37:41 22° SE 06:46:53 10° E daylight
02 Mar - 08:30:08 10° SW 08:41:10 45° SSE 08:54:51 10° E daylight
02 Mar - 10:33:28 10° WSW 10:46:25 57° S 11:00:55 10° ESE daylight
02 Mar - 12:38:27 10° W 12:52:00 47° SSW 13:05:20 10° SE daylight
02 Mar - 14:45:20 10° W 14:56:20 26° SW 15:06:25 10° S daylight
03 Mar - 05:58:22 10° SSE 06:04:51 18° SE 06:12:33 10° E visible
03 Mar - 07:57:35 10° SW 08:07:56 42° SSE 08:21:08 10° E daylight
03 Mar - 10:00:30 10° WSW 10:12:56 56° S 10:27:29 10° ESE daylight
03 Mar - 12:05:09 10° W 12:18:33 49° SSW 12:32:17 10° SE daylight
03 Mar - 14:11:32 10° W 14:23:09 29° SW 14:34:04 10° SSE daylight
